Location: Banios
(43.0451°N, 0.2335°E)
Time: 12:56:57
(UTC+00:00)

Cosmos 1939 Rocket - Pass Details

Date: 25 January 2021
Orbit: 530 x 585 km, 97.4° (Epoch: 25 February)

Event Time Altitude Azimuth Distance (km) Brightness Sun altitude
Rises 06:42:41 0° 14° (NNE) 2,716 6.3 -7.3°
Reaches altitude 10° 06:44:51 10° 16° (NNE) 1,812 5.4 -6.9°
Maximum altitude 06:48:44 71° 100° (E) 569 3.1 -6.2°
Drops below altitude 10° 06:52:34 10° 186° (S) 1,778 5.6 -5.6°
Sets 06:54:40 0° 189° (S) 2,660 6.5 -5.2°
